• In Netherlands
  • List of Countries
  • For 7 days
  • Water Temperature
  • Satellite Maps
  • Weather Map
  • Weather Widgets
  • user-avatar
    Login

    Hourly Weather Sunny Beach

    Today, 23 March, Thursday

    Time Temperature Precipitation Wind Pressure Humidity
    00:00 +4°C° 0 mm 2 mps 738 mmHg 89%
    01:00 +4°C° 0 mm 2 mps 738 mmHg 89%
    02:00 +4°C° 0 mm 1 mps 738 mmHg 90%
    03:00 +4°C° 0 mm 1 mps 738 mmHg 89%
    04:00 +3°C° 0 mm 2 mps 738 mmHg 89%
    05:00 +3°C° 0 mm 2 mps 738 mmHg 88%
    06:00 +4°C° 0 mm 2 mps 739 mmHg 84%
    07:00 +5°C° 0 mm 2 mps 739 mmHg 79%
    08:00 +8°C° 0 mm 1 mps 739 mmHg 73%
    09:00 +8°C° 0 mm 2 mps 739 mmHg 66%
    10:00 +10°C° 0 mm 2 mps 740 mmHg 59%
    11:00 +11°C° 0 mm 3 mps 740 mmHg 53%
    12:00 +12°C° 0 mm 3 mps 740 mmHg 52%
    13:00 +12°C° 0 mm 3 mps 740 mmHg 52%
    14:00 +13°C° 0 mm 4 mps 740 mmHg 52%
    15:00 +12°C° 0 mm 4 mps 740 mmHg 56%
    16:00 +11°C° 0 mm 3 mps 740 mmHg 61%
    17:00 +10°C° 0 mm 3 mps 740 mmHg 65%
    18:00 +9°C° 0 mm 3 mps 741 mmHg 71%
    19:00 +7°C° 0 mm 3 mps 741 mmHg 77%
    20:00 +5°C° 0 mm 2 mps 741 mmHg 83%
    21:00 +5°C° 0 mm 2 mps 741 mmHg 83%
    22:00 +4°C° 0 mm 2 mps 741 mmHg 84%
    23:00 +4°C° 0 mm 2 mps 741 mmHg 84%

    Tomorrow, 24 March, Friday

    Time Temperature Precipitation Wind Pressure Humidity
    00:00 +4°C° 0 mm 2 mps 741 mmHg 84%
    01:00 +4°C° 0 mm 1 mps 741 mmHg 85%
    02:00 +4°C° 0 mm 1 mps 741 mmHg 85%
    03:00 +4°C° 0 mm 1 mps 741 mmHg 85%
    04:00 +4°C° 0 mm 1 mps 741 mmHg 85%
    05:00 +4°C° 0 mm 1 mps 741 mmHg 85%
    06:00 +5°C° 0 mm 1 mps 741 mmHg 80%
    07:00 +7°C° 0 mm 1 mps 741 mmHg 75%
    08:00 +9°C° 0 mm 1 mps 741 mmHg 70%
    09:00 +9°C° 0 mm 2 mps 741 mmHg 64%
    10:00 +12°C° 0 mm 2 mps 742 mmHg 59%
    11:00 +14°C° 0 mm 2 mps 742 mmHg 53%
    12:00 +15°C° 0 mm 2 mps 741 mmHg 52%
    13:00 +15°C° 0 mm 2 mps 741 mmHg 50%
    14:00 +16°C° 0 mm 2 mps 741 mmHg 49%
    15:00 +15°C° 0 mm 2 mps 741 mmHg 53%
    16:00 +15°C° 0 mm 2 mps 740 mmHg 57%
    17:00 +14°C° 0 mm 2 mps 740 mmHg 62%
    18:00 +12°C° 0 mm 2 mps 740 mmHg 68%
    19:00 +10°C° 0 mm 1 mps 740 mmHg 75%
    20:00 +7°C° 0 mm 1 mps 740 mmHg 82%
    21:00 +7°C° 0 mm 1 mps 740 mmHg 80%
    22:00 +7°C° 0 mm 1 mps 740 mmHg 79%
    23:00 +5°C° 0 mm 0 mps 740 mmHg 77%

    Day after tomorrow, 25 March, Saturday

    Time Temperature Precipitation Wind Pressure Humidity
    00:00 +5°C° 0 mm 0 mps 739 mmHg 77%
    01:00 +5°C° 0 mm 0 mps 739 mmHg 77%
    02:00 +5°C° 0 mm 0 mps 739 mmHg 77%
    03:00 +5°C° 0 mm 0 mps 739 mmHg 77%
    04:00 +4°C° 0 mm 0 mps 739 mmHg 77%
    05:00 +5°C° 0 mm 1 mps 739 mmHg 77%
    06:00 +8°C° 0 mm 1 mps 739 mmHg 71%
    07:00 +10°C° 0 mm 1 mps 739 mmHg 65%
    08:00 +12°C° 0 mm 1 mps 740 mmHg 60%
    09:00 +13°C° 0 mm 2 mps 740 mmHg 61%
    10:00 +13°C° 0 mm 3 mps 740 mmHg 62%
    11:00 +14°C° 0 mm 4 mps 740 mmHg 63%
    12:00 +13°C° 0 mm 5 mps 740 mmHg 66%
    13:00 +13°C° 0 mm 5 mps 740 mmHg 70%
    14:00 +11°C° 0 mm 6 mps 740 mmHg 73%
    15:00 +10°C° 0 mm 6 mps 739 mmHg 76%
    16:00 +9°C° 0 mm 6 mps 739 mmHg 80%
    17:00 +8°C° 0 mm 5 mps 739 mmHg 83%
    18:00 +7°C° 0 mm 5 mps 739 mmHg 86%
    19:00 +6°C° 0 mm 4 mps 740 mmHg 88%
    20:00 +5°C° 0 mm 3 mps 740 mmHg 91%
    21:00 +5°C° 0 mm 3 mps 740 mmHg 91%
    22:00 +6°C° 0 mm 2 mps 740 mmHg 92%
    23:00 +5°C° 0 mm 2 mps 740 mmHg 92%

    26 March, Sunday

    Time Temperature Precipitation Wind Pressure Humidity
    00:00 +6°C° 0 mm 1 mps 739 mmHg 93%
    01:00 +5°C° 0 mm 1 mps 739 mmHg 93%
    02:00 +5°C° 0 mm 1 mps 739 mmHg 94%
    03:00 +5°C° 0 mm 1 mps 738 mmHg 94%
    04:00 +3°C° 0 mm 0 mps 738 mmHg 94%
    05:00 +3°C° 0 mm 0 mps 737 mmHg 95%
    06:00 +5°C° 0 mm 1 mps 737 mmHg 90%
    07:00 +7°C° 0 mm 1 mps 737 mmHg 86%
    08:00 +8°C° 0 mm 1 mps 737 mmHg 82%
    09:00 +9°C° 0 mm 2 mps 737 mmHg 78%
    10:00 +12°C° 0 mm 2 mps 736 mmHg 73%
    11:00 +12°C° 0 mm 3 mps 736 mmHg 69%
    12:00 +13°C° 0 mm 3 mps 735 mmHg 67%
    13:00 +14°C° 0 mm 3 mps 734 mmHg 66%
    14:00 +15°C° 0 mm 4 mps 734 mmHg 65%
    15:00 +15°C° 0.2 mm 4 mps 733 mmHg 67%
    16:00 +16°C° 0.2 mm 3 mps 733 mmHg 70%
    17:00 +16°C° 0.2 mm 3 mps 732 mmHg 72%
    18:00 +14°C° 1.2 mm 2 mps 732 mmHg 79%
    19:00 +13°C° 1.2 mm 2 mps 731 mmHg 85%
    20:00 +11°C° 1.2 mm 1 mps 731 mmHg 91%
    21:00 +11°C° 0.5 mm 1 mps 731 mmHg 91%
    22:00 +9°C° 0.5 mm 2 mps 731 mmHg 91%
    23:00 +9°C° 0.5 mm 2 mps 731 mmHg 91%

    27 March, Monday

    Time Temperature Precipitation Wind Pressure Humidity
    00:00 +9°C° 1 mm 3 mps 731 mmHg 92%
    01:00 +7°C° 1 mm 4 mps 730 mmHg 93%
    02:00 +7°C° 1 mm 5 mps 730 mmHg 94%
    03:00 +5°C° 2.2 mm 6 mps 731 mmHg 92%
    04:00 +4°C° 2.2 mm 8 mps 731 mmHg 91%
    05:00 +2°C° 2.2 mm 9 mps 731 mmHg 90%
    06:00 +1°C° 0.8 mm 9 mps 732 mmHg 89%
    07:00 +1°C° 0.8 mm 9 mps 733 mmHg 88%
    08:00 +1°C° 0.8 mm 8 mps 733 mmHg 88%
    09:00 +1°C° 0.4 mm 8 mps 734 mmHg 86%
    10:00 +2°C° 0.4 mm 9 mps 735 mmHg 83%
    11:00 +2°C° 0.4 mm 9 mps 736 mmHg 81%
    12:00 +3°C° 0.1 mm 9 mps 736 mmHg 78%
    13:00 +3°C° 0.1 mm 9 mps 736 mmHg 75%
    14:00 +5°C° 0.1 mm 9 mps 736 mmHg 72%
    15:00 +4°C° 0 mm 8 mps 736 mmHg 72%
    16:00 +4°C° 0 mm 8 mps 736 mmHg 72%
    17:00 +4°C° 0 mm 7 mps 737 mmHg 72%
    18:00 +3°C° 0 mm 6 mps 737 mmHg 74%
    19:00 +3°C° 0 mm 5 mps 737 mmHg 77%
    20:00 +3°C° 0 mm 4 mps 738 mmHg 79%
    21:00 +1°C° 0 mm 4 mps 738 mmHg 79%
    22:00 +1°C° 0 mm 4 mps 738 mmHg 79%
    23:00 +1°C° 0 mm 4 mps 739 mmHg 78%

    28 March, Tuesday

    Time Temperature Precipitation Wind Pressure Humidity
    00:00 +1°C° 0 mm 4 mps 739 mmHg 78%
    01:00 0°C° 0 mm 4 mps 739 mmHg 77%
    02:00 0°C° 0 mm 4 mps 739 mmHg 77%
    03:00 0°C° 0 mm 4 mps 739 mmHg 78%
    04:00 +1°C° 0 mm 5 mps 739 mmHg 79%
    05:00 +1°C° 0 mm 5 mps 740 mmHg 81%
    06:00 +1°C° 0 mm 6 mps 740 mmHg 78%
    07:00 +2°C° 0 mm 7 mps 740 mmHg 75%
    08:00 +1°C° 0 mm 8 mps 741 mmHg 72%
    09:00 +2°C° 0 mm 8 mps 741 mmHg 69%
    10:00 +4°C° 0 mm 8 mps 741 mmHg 65%
    11:00 +5°C° 0 mm 8 mps 742 mmHg 62%
    12:00 +5°C° 0 mm 8 mps 742 mmHg 62%
    13:00 +5°C° 0 mm 7 mps 742 mmHg 61%
    14:00 +5°C° 0 mm 7 mps 742 mmHg 61%
    15:00 +5°C° 0 mm 6 mps 742 mmHg 62%
    16:00 +6°C° 0 mm 5 mps 742 mmHg 63%
    17:00 +6°C° 0 mm 5 mps 742 mmHg 65%
    18:00 +4°C° 0 mm 4 mps 742 mmHg 70%
    19:00 +3°C° 0 mm 3 mps 742 mmHg 76%
    20:00 +2°C° 0 mm 2 mps 742 mmHg 82%
    21:00 +2°C° 0 mm 2 mps 742 mmHg 83%
    22:00 +3°C° 0 mm 1 mps 742 mmHg 84%
    23:00 +2°C° 0 mm 1 mps 743 mmHg 84%
    Show more